Weather History for Savannah, GA

Change the Weather History Date:

Thursday, July 4, 2013

  Actual Average Record
Temperature  
Mean Temperature 83 °F 82 °F  
Max Temperature 88 °F 92 °F 99 °F (1954)
Min Temperature 78 °F 72 °F 61 °F (1933)
Degree Days  
Heating Degree Days 0 0  
Month to date heating degree days 0 0  
Since 1 June heating degree days 0 0  
Since 1 July heating degree days 0 0  
Cooling Degree Days 18 17  
Month to date cooling degree days 61 68  
Year to date cooling degree days 887 917  
Since 1 June cooling degree days 529 514  
Growing Degree Days 33 (Base 50)    
Moisture  
Dew Point 73 °F    
Average Humidity 75    
Maximum Humidity 91    
Minimum Humidity 59    
Precipitation  
Precipitation T in 0.17 in 2.09 in (1907)
Month to date precipitation 1.70 0.66  
Year to date precipitation 29.52 22.87  
Sea Level Pressure  
Sea Level Pressure 30.17 in    
Wind  
Wind Speed 13 mph (SE)    
Max Wind Speed 25 mph    
Max Gust Speed 32 mph    
Visibility 10 miles    
Events      
T = Trace of Precipitation, MM = Missing Value Source: NWS Daily Summary

Daily Weather History Graph

Daily Weather History Graph

Search for Another Location

Airport:

Trip Planner

Search our weather history database for the weather conditions in past years. The results will help you decide how hot, cold, wet, or windy it might be!

Date:

Astronomy

Jul. 04, 2013 Rise Set
Actual Time 6:23 AM EDT 8:34 PM EDT
Civil Twilight 5:55 AM EDT 9:03 PM EDT
Nautical Twilight 5:20 AM EDT 9:37 PM EDT
Astronomical Twilight 4:43 AM EDT 10:14 PM EDT
Moon 3:34 AM EDT (7/4) 5:41 PM EDT (7/4)
Length of Visible Light 15h 07m
Length of Day
14h 11m
Waning Crescent, 11% of the Moon is Illuminated
Jul 4
Waning Crescent
Jul 8
New
Jul 15
First Quarter
Jul 22
Full
Jul 29
Last Quarter

Hourly Weather History & Observations

Time (EDT) Temp. Heat Index Dew Point Humidity Pressure Visibility Wind Dir Wind Speed Gust Speed Precip Events Conditions
12:06 AM 78.8 °F - 75.2 °F 89% 30.19 in 10.0 mi SSE 9.2 mph - N/A   Partly Cloudy
12:53 AM 79.0 °F - 75.0 °F 88% 30.18 in 10.0 mi SE 9.2 mph - N/A   Partly Cloudy
1:53 AM 79.0 °F - 73.9 °F 84% 30.17 in 10.0 mi SE 8.1 mph - N/A   Mostly Cloudy
2:19 AM 78.8 °F - 73.4 °F 83% 30.17 in 10.0 mi SE 6.9 mph - N/A   Partly Cloudy
2:53 AM 79.0 °F - 73.9 °F 84% 30.15 in 10.0 mi SE 9.2 mph - N/A   Clear
3:53 AM 78.1 °F - 73.0 °F 84% 30.15 in 10.0 mi SE 6.9 mph - N/A   Scattered Clouds
4:34 AM 78.8 °F - 73.4 °F 83% 30.16 in 10.0 mi SE 6.9 mph - N/A   Mostly Cloudy
4:42 AM 78.8 °F - 73.4 °F 83% 30.16 in 10.0 mi SE 6.9 mph - N/A   Scattered Clouds
4:53 AM 78.1 °F - 73.9 °F 87% 30.16 in 10.0 mi SE 6.9 mph - N/A   Partly Cloudy
5:53 AM 78.1 °F - 73.9 °F 87% 30.16 in 10.0 mi SE 8.1 mph - N/A   Mostly Cloudy
6:53 AM 78.1 °F - 73.9 °F 87% 30.17 in 10.0 mi SE 6.9 mph - N/A   Mostly Cloudy
7:53 AM 80.1 °F 84.5 °F 73.9 °F 81% 30.17 in 10.0 mi ESE 9.2 mph - N/A   Scattered Clouds
8:53 AM 82.0 °F 87.9 °F 73.9 °F 76% 30.18 in 10.0 mi SE 12.7 mph - N/A   Mostly Cloudy
9:53 AM 82.9 °F 88.8 °F 73.0 °F 72% 30.18 in 10.0 mi SSE 15.0 mph 19.6 mph N/A   Mostly Cloudy
10:53 AM 84.9 °F 91.4 °F 73.0 °F 67% 30.19 in 10.0 mi SE 15.0 mph - N/A   Mostly Cloudy
11:53 AM 87.1 °F 94.5 °F 73.0 °F 63% 30.19 in 10.0 mi SE 17.3 mph 23.0 mph N/A   Mostly Cloudy
12:53 PM 88.0 °F 94.7 °F 72.0 °F 59% 30.19 in 10.0 mi SE 18.4 mph 27.6 mph 0.00 in   Mostly Cloudy
1:53 PM 87.1 °F 92.8 °F 71.1 °F 59% 30.16 in 10.0 mi SE 21.9 mph 27.6 mph N/A   Mostly Cloudy
2:53 PM 86.0 °F 91.5 °F 71.1 °F 61% 30.15 in 10.0 mi SE 20.7 mph - N/A   Mostly Cloudy
3:53 PM 87.1 °F 94.5 °F 73.0 °F 63% 30.14 in 10.0 mi SSE 25.3 mph 32.2 mph N/A   Scattered Clouds
4:53 PM 84.9 °F 91.4 °F 73.0 °F 67% 30.15 in 10.0 mi SSE 17.3 mph 27.6 mph N/A   Mostly Cloudy
5:53 PM 86.0 °F 93.0 °F 73.0 °F 65% 30.15 in 10.0 mi SSE 17.3 mph 25.3 mph N/A   Mostly Cloudy
6:31 PM 82.4 °F 88.2 °F 73.4 °F 74% 30.15 in 10.0 mi SSE 12.7 mph 21.9 mph 0.00 in   Mostly Cloudy
6:53 PM 81.0 °F 86.7 °F 75.0 °F 82% 30.16 in 9.0 mi SSE 11.5 mph - 0.00 in   Mostly Cloudy
7:53 PM 81.0 °F 86.2 °F 73.9 °F 79% 30.17 in 10.0 mi SSE 13.8 mph - 0.00 in   Mostly Cloudy
8:53 PM 81.0 °F 86.2 °F 73.9 °F 79% 30.18 in 10.0 mi SSE 10.4 mph - N/A   Mostly Cloudy
9:53 PM 80.1 °F 84.5 °F 73.9 °F 81% 30.19 in 10.0 mi SSE 8.1 mph - N/A   Mostly Cloudy
10:53 PM 80.1 °F 84.5 °F 73.9 °F 81% 30.20 in 10.0 mi SSE 11.5 mph - N/A   Mostly Cloudy
11:53 PM 80.1 °F 84.5 °F 73.9 °F 81% 30.19 in 10.0 mi SSE 9.2 mph - N/A   Mostly Cloudy